GFSSGP_prec_cloud_003.txt.gz
Cloud_Cover
5 6 20 83 96 44 4 6 5 4 0 0 4 2 2 5 5 5 0 0 0 0 0 0 0 0 0 0 0 0 0 0 0 0 0 0 0 0 0 0 0 0 0 5 69 0 0 5 6
5 5 5 60 12 5 27 3 5 12 9 5 5 5 5 0 5 5 0 0 0 0 0 0 0 0 0 0 0 0 0 0 0 0 0 0 0 0 0 0 0 0 0 0 0 0 0 1 5
5 5 44 5 7 14 5 4 5 5 5 3 69 90 4 0 1 2 1 0 0 0 0 0 0 0 0 0 0 0 0 0 0 0 0 0 2 0 0 0 0 0 79 2 0 0 0 0 5
1 5 9 92 73 5 17 7 5 5 5 5 77 89 4 1 0 3 5 0 0 0 0 0 0 0 0 0 0 0 0 0 0 4 5 3 1 0 0 0 0 0 9 91 11 0 0 0 0
12 18 11 70 70 9 58 82 85 7 5 10 100 86 5 5 3 58 58 2 4 0 2 0 0 0 0 0 0 0 0 0 0 0 0 4 2 5 5 4 4 0 0 0 0 0 6 0 0
3 12 53 14 9 11 66 60 82 100 5 26 100 93 22 5 5 100 32 5 0 3 2 0 0 0 0 0 0 0 0 0 0 0 0 0 0 2 56 56 5 0 0 0 0 2 9 0 0
1 5 5 5 7 83 26 82 100 99 80 44 100 72 44 58 22 98 9 5 5 5 0 0 1 0 0 0 0 0 0 0 0 0 0 9 0 0 9 29 49 5 2 0 0 27 0 1 0
4 5 5 4 26 83 100 100 74 76 19 39 100 94 94 100 61 57 5 5 8 4 0 5 2 0 0 0 0 0 0 0 1 20 72 1 0 18 4 24 71 100 45 2 0 0 0 0 0
5 32 5 10 46 75 80 55 100 46 30 50 100 100 73 100 29 7 3 25 98 5 84 9 0 0 0 0 0 0 0 2 66 85 60 2 0 0 2 16 47 93 90 37 0 2 0 0 0
26 18 69 46 59 99 24 82 100 87 13 63 81 88 100 80 5 5 4 97 11 71 40 2 0 0 0 0 0 6 29 71 78 74 61 51 40 2 0 2 8 13 5 5 0 2 0 0 19
10 20 54 98 81 74 97 100 100 98 50 4 5 57 50 24 7 12 15 15 99 8 5 0 0 0 0 0 2 40 82 100 100 100 98 89 71 58 23 46 3 5 5 22 14 7 8 75 8
94 98 100 100 63 40 66 99 100 76 34 5 52 100 100 98 5 5 8 84 93 90 0 0 0 0 0 1 5 69 21 54 62 89 62 52 57 40 99 43 40 13 43 17 32 21 31 30 16
6 100 100 74 66 80 94 100 99 10 92 43 69 100 100 55 22 14 36 100 81 1 0 0 0 0 0 10 18 100 77 100 85 94 52 99 96 82 65 43 63 12 6 5 5 3 2 7 0
62 97 100 100 98 83 93 96 42 73 81 6 82 96 19 82 44 9 99 19 5 3 0 0 0 0 2 8 73 67 96 100 100 100 42 50 73 60 63 62 66 7 24 5 5 3 4 2 5
100 100 100 100 100 59 91 100 61 100 100 100 100 88 99 91 24 99 70 5 5 0 0 0 0 0 43 58 100 100 100 100 89 87 10 11 45 83 62 54 16 72 64 5 5 5 5 4 12
98 40 99 94 100 100 100 100 100 100 100 100 93 18 67 99 90 99 49 6 0 0 0 0 0 0 6 75 100 100 100 100 98 88 100 22 36 78 39 35 3 1 5 5 5 29 5 5 27
88 96 100 93 100 75 89 100 50 70 100 100 47 92 100 100 96 7 18 0 0 0 0 0 0 1 20 54 87 100 48 100 98 100 100 100 67 75 17 78 5 5 5 4 50 51 5 5 68
80 5 72 94 79 100 100 100 100 100 100 100 100 100 100 64 10 2 0 0 0 0 0 0 0 4 92 40 98 24 50 78 100 100 100 100 100 65 57 54 86 90 54 5 4 5 25 100 84
54 78 5 5 5 5 82 100 100 100 100 100 93 7 5 5 15 5 5 3 0 0 0 0 0 22 100 100 100 99 99 93 100 100 100 100 100 91 100 77 78 61 100 39 11 99 100 100 98
3 1 0 0 2 4 2 92 100 84 68 100 8 2 0 4 5 5 0 28 0 0 0 0 0 50 100 100 87 79 86 96 100 100 100 100 100 100 100 100 100 100 92 79 74 72 25 82 100
0 0 0 0 0 0 0 0 0 0 21 99 8 2 0 0 4 5 20 15 0 0 0 0 0 66 100 100 100 97 70 99 70 99 100 100 100 100 100 100 100 100 100 100 96 17 25 61 100
0 0 0 0 0 0 0 0 0 0 0 2 2 1 0 0 5 0 94 39 0 0 0 0 0 97 100 100 98 100 100 100 100 96 100 100 100 99 100 100 100 100 100 100 100 100 82 100 100
0 0 0 0 0 0 0 0 0 0 0 4 3 0 2 5 4 23 100 0 0 0 0 0 0 6 100 100 75 100 73 100 100 92 96 100 100 97 98 100 100 100 100 68 100 100 100 100 100
0 0 0 0 0 0 0 0 0 0 0 3 0 0 3 0 22 100 37 0 0 0 0 0 0 5 98 97 100 100 98 54 97 63 99 100 100 100 100 85 100 100 100 100 100 100 100 100 100
0 0 0 0 0 0 0 0 0 0 0 0 0 0 0 5 88 89 5 1 0 0 0 0 0 0 94 78 95 100 98 100 99 100 100 100 100 100 100 100 100 100 100 100 100 100 100 98 99
0 0 0 0 2 0 0 0 0 0 0 2 5 0 1 37 100 13 2 0 0 0 4 0 0 2 60 17 100 98 32 93 27 100 100 100 100 100 100 100 100 99 100 100 100 100 100 100 100
5 5 0 0 0 0 0 0 0 0 0 5 5 35 28 86 46 6 0 0 0 0 5 1 0 0 76 5 100 53 5 50 19 97 36 100 100 100 100 100 95 100 100 100 100 98 97 100 72
3 5 2 1 0 0 0 0 0 1 3 54 12 67 100 12 36 5 0 0 0 0 4 2 0 0 16 35 100 99 64 100 24 63 100 100 100 100 100 100 100 96 100 100 99 78 100 100 100
5 5 1 1 0 0 0 0 0 5 5 5 4 5 94 5 30 5 0 0 0 0 4 0 0 0 2 100 95 100 100 100 81 36 71 100 100 100 100 100 100 100 100 100 100 99 100 100 100
5 45 2 3 0 5 0 0 0 0 0 4 7 29 98 5 75 60 0 0 0 0 0 1 0 0 0 5 46 98 100 100 100 98 67 100 61 100 100 100 100 100 100 100 100 100 100 100 100

GFSSGP_prec_cloud_006.txt.gz
Cloud_Cover
1 4 16 5 2 4 5 5 5 15 25 5 3 5 4 0 0 4 0 0 0 0 0 0 0 0 0 0 0 0 0 0 0 0 0 0 0 0 0 0 0 0 0 0 7 5 5 5 6
0 5 7 5 5 5 63 5 5 1 1 3 5 37 4 0 5 5 2 0 0 0 0 0 0 0 0 0 0 0 0 0 0 0 0 0 0 0 0 0 0 0 0 0 0 2 5 5 11
2 23 100 38 0 1 5 5 5 1 0 0 2 36 22 4 5 11 6 0 0 0 0 0 0 0 0 0 0 0 0 0 0 0 0 0 1 6 1 0 0 0 0 0 0 2 0 2 5
0 0 34 2 5 4 5 5 5 5 0 0 5 31 23 5 5 20 5 0 1 5 0 0 0 0 0 0 0 0 0 0 0 0 0 0 2 1 3 6 0 0 0 0 0 8 53 0 0
1 5 100 80 5 4 3 1 5 4 5 4 9 49 2 5 59 98 2 0 5 6 1 4 3 0 3 0 0 0 0 0 0 0 0 0 0 0 0 3 3 2 0 0 0 0 0 0 0
91 92 100 100 85 38 3 5 5 5 5 5 5 18 10 30 83 18 4 5 16 5 5 5 5 5 0 0 0 0 0 0 0 0 0 0 0 0 1 1 5 5 0 1 0 0 0 8 0
100 100 100 100 100 82 5 5 5 5 5 18 53 34 72 92 76 8 48 100 97 5 3 10 0 0 2 0 0 0 0 0 0 0 0 0 0 0 0 0 4 5 4 0 0 0 0 0 0
4 43 36 77 100 98 23 27 5 60 13 76 71 100 100 100 5 8 96 100 57 5 2 0 0 2 5 0 0 0 0 0 0 7 27 12 15 0 0 0 4 8 5 3 0 0 0 0 0
5 15 98 100 100 100 74 56 25 18 58 98 73 98 100 74 12 6 20 49 5 0 0 0 23 52 0 0 0 0 0 0 12 22 40 20 50 100 74 9 2 7 44 26 3 0 0 0 0
75 100 100 100 100 99 69 94 60 100 100 74 100 13 6 5 5 1 10 6 2 0 0 30 84 0 0 0 17 37 69 99 99 85 60 79 100 72 60 74 1 10 35 56 5 2 1 0 48
100 100 100 100 11 32 91 86 51 95 84 98 11 24 5 57 51 4 5 0 1 1 1 20 2 0 0 0 3 20 100 100 100 100 100 100 60 40 26 53 4 3 92 26 18 5 0 37 17
100 100 96 84 64 97 66 46 96 58 54 69 68 57 30 68 6 5 3 5 32 5 26 5 0 0 0 10 28 82 100 99 100 83 100 71 83 97 75 26 90 100 88 60 30 3 30 19 15
100 45 84 72 69 69 100 100 47 80 100 47 5 11 100 98 30 9 78 88 20 97 89 4 0 0 20 99 75 100 100 100 100 73 82 45 34 78 40 68 66 78 99 29 38 8 13 49 44
100 89 43 97 61 99 44 84 33 54 80 37 26 99 100 100 100 94 99 61 100 100 21 0 0 36 55 58 98 93 100 100 100 100 61 77 76 88 67 59 37 9 38 52 88 6 16 66 29
100 100 100 66 63 100 100 100 100 100 100 99 100 100 100 60 54 79 98 100 100 100 0 0 0 38 62 94 79 82 85 95 100 100 100 79 37 45 97 17 60 100 61 24 18 6 24 41 50
96 82 38 100 100 9 14 100 100 100 100 78 38 17 97 100 100 100 100 100 84 0 0 0 0 17 32 26 49 64 58 100 98 100 100 100 67 39 79 52 21 12 13 4 22 22 38 80 19
100 100 86 98 6 8 5 69 66 87 84 100 100 100 96 74 96 99 45 0 0 0 0 0 0 1 2 5 11 55 100 100 100 100 100 100 85 29 84 93 10 30 24 43 43 98 100 99 40
24 51 91 85 14 0 2 11 97 98 34 97 44 12 29 96 34 5 0 0 0 0 0 0 0 0 95 41 8 81 100 100 100 100 100 100 85 41 33 38 45 13 13 58 19 73 100 50 44
34 5 5 5 4 0 5 1 5 92 4 18 74 5 9 0 4 5 0 0 0 4 4 0 0 0 100 28 29 59 82 100 84 97 100 100 95 89 73 43 27 12 96 53 56 14 27 36 22
0 0 0 5 2 0 0 0 0 1 4 62 1 0 0 0 0 0 0 0 0 5 0 0 0 47 100 46 66 100 75 96 100 98 99 98 100 98 98 98 49 18 11 90 99 29 12 14 7
0 0 1 5 4 0 0 0 0 0 0 0 0 0 0 0 0 0 0 0 5 1 0 0 0 79 29 98 78 98 100 100 100 100 98 100 100 100 100 93 64 38 5 21 19 7 10 6 65
0 0 0 0 0 0 0 0 0 0 0 0 0 0 0 0 0 0 0 66 12 0 0 0 0 99 100 100 76 82 100 100 89 94 59 100 100 100 100 100 97 74 85 17 38 8 88 81 49
0 0 0 0 0 0 0 0 0 0 0 0 0 0 0 0 0 3 8 99 5 0 0 0 0 100 100 27 100 84 95 100 98 100 97 100 100 100 100 100 100 100 100 95 37 40 66 37 52
0 0 0 0 0 1 0 0 0 0 0 0 0 0 0 0 0 3 90 64 4 0 0 0 0 46 98 33 100 50 96 98 91 100 100 99 100 100 97 98 100 100 80 100 31 55 42 6 100
0 0 0 3 5 3 0 0 0 0 0 0 0 0 0 0 0 5 92 8 0 0 0 4 0 8 97 9 100 8 28 100 100 100 96 100 89 99 100 85 100 100 100 85 34 20 62 100 100
0 1 0 3 5 5 4 0 0 0 0 0 0 0 0 0 2 33 8 0 0 0 1 4 0 3 100 11 56 34 30 97 100 100 100 100 100 92 100 100 97 100 100 100 82 59 100 100 100
0 5 4 56 5 5 2 4 0 0 0 0 5 0 0 5 5 5 5 0 0 0 11 1 0 2 81 80 20 5 5 8 75 100 100 100 100 95 91 100 85 98 100 100 100 100 100 100 100
2 2 20 90 6 24 7 3 1 66 5 5 5 5 5 12 5 5 3 0 0 0 10 1 0 0 37 91 16 1 11 12 40 95 100 100 100 100 79 100 100 77 100 100 100 100 100 100 100
5 5 14 59 5 5 47 5 2 0 2 5 5 0 2 5 4 5 5 0 0 0 0 1 0 0 8 100 56 3 6 5 99 100 100 100 100 100 100 96 100 97 45 100 100 100 100 100 100
62 98 100 7 31 5 4 2 6 0 0 2 80 8 47 65 2 14 5 0 0 0 0 1 0 0 1 12 100 97 24 5 28 100 100 100 100 100 91 100 100 100 100 89 100 100 100 100 100

GFSSGP_prec_cloud_009.txt.gz
Cloud_Cover
8 31 5 0 0 3 16 100 5 6 11 0 1 5 5 5 21 52 6 4 5 5 7 5 0 0 0 0 0 0 0 1 0 0 0 0 0 0 0 0 0 0 0 0 0 1 1 5 9
30 34 5 4 4 68 100 96 100 18 2 0 0 1 1 1 5 8 34 5 3 26 80 25 0 0 0 0 0 0 0 0 0 0 0 8 4 0 0 0 0 0 0 0 0 2 0 3 5
65 16 0 6 75 99 90 100 100 91 1 0 1 0 2 5 19 5 63 6 6 100 100 6 0 2 5 5 0 0 0 0 0 0 0 0 0 0 0 0 0 0 0 0 0 0 0 0 5
22 7 60 5 37 100 69 100 100 100 61 7 50 0 5 7 4 5 21 5 100 54 3 0 0 3 5 0 2 0 0 0 0 0 0 0 0 0 0 1 3 9 0 0 0 0 2 83 0
0 3 5 92 92 100 59 91 100 100 93 18 75 33 3 17 35 67 12 66 100 8 0 1 5 5 1 0 0 0 0 0 0 0 0 0 0 0 0 0 0 1 16 0 0 5 6 36 4
15 10 77 97 100 97 100 59 16 5 62 100 88 50 1 1 5 23 76 100 96 3 0 5 6 2 0 0 0 0 0 0 0 0 0 0 0 0 0 0 0 0 0 0 0 3 0 0 0
5 22 100 100 100 81 100 63 5 62 100 100 11 5 4 80 9 10 98 100 1 3 0 5 4 0 0 0 0 0 0 0 0 0 0 0 0 0 0 0 0 0 0 5 0 0 0 0 0
100 100 100 100 100 100 99 78 53 100 100 32 38 6 70 100 98 19 6 5 0 5 43 5 0 0 0 0 2 4 0 0 0 0 0 4 17 1 0 0 0 0 0 5 2 0 0 1 0
100 88 99 63 100 100 100 100 100 100 73 5 29 10 100 100 25 5 25 5 4 48 44 0 0 0 1 15 4 0 7 0 1 2 2 27 69 70 97 9 0 1 0 5 5 0 0 0 0
99 94 100 100 99 100 100 100 100 99 29 6 6 34 100 99 11 10 15 5 34 22 3 0 0 2 37 68 3 1 60 14 6 6 77 94 77 81 94 22 4 4 0 5 5 2 0 0 13
95 100 100 100 100 100 100 100 100 64 26 92 72 39 85 78 5 5 30 88 77 5 6 0 1 94 99 76 0 2 44 72 83 25 87 100 14 43 100 36 78 3 5 18 18 15 2 0 68
100 100 100 100 100 100 100 100 100 100 78 99 99 100 99 58 9 100 100 100 100 100 19 26 100 100 75 3 0 15 35 97 73 90 93 92 75 6 47 10 5 98 56 60 82 100 40 0 91
100 100 100 100 100 100 100 96 79 66 70 100 83 100 100 68 100 100 81 100 65 45 100 98 100 57 45 3 3 62 23 68 100 30 66 100 30 9 20 86 13 76 94 52 92 69 54 37 0
100 100 100 100 100 100 93 92 100 88 100 100 100 100 100 100 100 98 7 11 93 100 100 100 3 13 1 36 3 26 52 100 83 100 97 100 66 37 26 23 9 18 12 99 81 19 98 3 6
100 100 100 100 100 89 10 84 98 95 11 100 100 100 100 88 81 22 26 100 100 100 39 0 0 0 5 46 16 18 91 95 29 92 100 100 100 17 57 13 11 2 56 100 21 5 80 0 2
100 100 100 37 85 100 100 86 98 85 5 36 97 95 96 99 57 100 100 82 7 3 0 0 0 0 0 59 94 5 92 100 77 100 100 100 100 33 100 81 37 4 13 13 30 90 64 91 100
100 98 99 100 100 92 18 94 73 72 35 87 100 100 64 18 24 13 0 0 0 0 0 0 0 0 0 28 82 7 96 100 27 53 100 91 87 43 89 79 50 30 5 49 100 65 71 38 100
100 91 15 44 98 100 81 47 82 77 22 92 92 12 3 0 0 0 0 0 0 0 0 0 0 0 2 47 94 91 8 50 68 61 100 72 14 86 96 57 94 56 5 9 100 98 16 32 100
98 100 100 100 88 30 99 42 52 97 19 2 0 0 0 0 0 0 0 0 0 0 0 0 0 0 32 96 74 86 100 80 100 80 39 50 36 53 100 20 33 44 47 5 42 97 80 100 100
100 100 89 5 5 44 61 5 0 1 0 0 0 0 0 0 0 0 0 0 0 1 1 0 0 0 93 70 100 100 64 100 100 100 75 100 85 53 98 24 4 23 5 50 8 24 59 11 65
34 32 5 5 5 72 8 0 4 5 0 0 0 0 0 0 0 0 0 0 0 44 0 0 0 0 46 29 60 100 100 82 100 100 71 100 95 100 85 49 17 5 47 30 46 5 7 24 26
58 5 4 1 5 19 6 0 5 2 2 0 0 0 0 0 0 0 0 0 2 4 0 0 0 2 100 26 93 100 100 100 100 100 100 100 82 54 90 90 7 2 55 98 39 5 5 6 12
0 0 5 5 5 4 5 3 4 5 54 4 0 0 0 0 0 0 0 0 5 1 0 0 0 2 100 50 22 57 63 19 99 100 100 100 100 81 100 100 94 25 5 7 100 75 6 5 6
0 3 0 5 5 3 5 5 5 10 64 0 0 4 0 0 0 0 2 55 7 0 0 0 0 18 98 58 27 84 99 68 100 100 100 90 100 100 100 100 100 67 18 24 5 9 17 55 14
0 1 0 5 7 33 35 5 5 0 3 0 0 5 0 0 0 0 5 1 0 0 0 0 0 0 98 36 45 49 100 57 100 100 100 76 86 100 100 100 100 100 100 26 13 65 100 58 79
0 2 0 19 96 98 72 5 36 3 4 0 0 0 0 0 0 12 2 0 0 0 0 0 0 0 92 11 5 31 98 99 100 100 100 100 83 100 100 93 100 100 54 44 80 96 50 58 100
5 1 2 5 1 64 88 84 16 1 3 11 3 4 0 0 4 4 0 0 0 0 0 0 0 0 32 38 5 15 73 100 100 100 100 100 82 99 100 99 100 100 90 46 45 52 100 100 100
1 2 2 4 5 81 100 96 100 0 50 19 1 4 0 0 3 0 0 5 0 0 0 0 0 0 3 5 2 8 29 55 100 100 100 100 100 100 97 89 100 100 100 96 100 99 100 100 100
5 6 5 5 6 86 100 97 96 26 7 25 76 4 0 0 0 2 3 1 0 0 0 0 0 0 0 5 1 5 25 100 100 73 93 100 100 100 100 38 100 100 100 98 98 100 100 100 100
8 17 93 93 23 5 76 100 93 0 5 6 100 0 0 3 3 0 5 0 0 0 0 0 0 0 0 5 5 5 52 100 100 100 100 100 100 100 100 98 100 100 100 100 100 100 100 100 100

GFSSGP_prec_cloud_015.txt.gz
Cloud_Cover
100 100 100 100 94 51 28 7 95 89 99 17 91 4 2 6 6 61 5 1 77 82 100 31 0 0 18 12 22 100 73 90 12 70 56 0 0 0 0 0 0 0 0 0 0 0 1 6 5
100 100 100 100 100 100 40 12 100 99 46 6 1 5 47 97 82 57 2 35 100 100 100 35 3 1 32 100 100 100 68 24 0 0 0 0 0 0 0 0 0 1 9 4 0 0 0 6 9
100 100 100 100 100 68 44 19 43 84 5 5 5 31 42 94 67 22 2 22 100 100 100 91 5 46 98 100 100 100 7 2 0 0 0 5 5 0 0 0 0 0 0 84 38 5 0 6 5
92 26 100 100 100 70 99 98 98 34 11 5 12 1 91 100 100 92 7 34 100 100 100 100 100 100 100 100 100 8 5 1 0 0 0 0 0 0 0 0 0 0 0 0 5 0 0 0 2
68 100 100 100 100 88 53 48 77 100 95 45 5 0 3 89 100 79 98 100 100 100 100 49 53 100 11 14 98 51 5 0 0 0 0 0 0 0 0 0 0 0 0 0 0 0 0 0 0
15 100 98 85 86 33 55 56 98 81 99 91 5 2 2 50 97 88 100 100 100 100 41 87 100 94 5 3 0 0 0 0 0 0 0 0 2 0 0 0 0 0 0 0 0 0 0 0 0
99 100 100 32 19 100 88 61 98 92 100 95 64 25 6 22 68 95 100 100 100 100 79 100 97 5 0 1 10 2 2 1 0 0 5 65 4 0 0 0 0 0 6 0 0 0 0 0 0
18 100 100 71 53 100 89 40 77 97 98 34 5 99 100 100 99 100 100 100 100 53 70 86 86 96 85 100 100 100 100 5 14 100 57 0 0 0 0 0 0 0 0 0 5 2 0 0 0
6 15 97 71 8 50 90 100 83 98 92 97 96 100 100 100 100 100 100 100 23 92 100 100 100 30 20 72 100 85 0 10 6 11 0 0 0 0 0 0 12 0 3 69 6 3 0 0 2
9 7 77 43 63 6 81 97 100 97 100 86 84 100 100 100 100 100 100 99 83 82 76 95 80 11 76 100 80 4 0 5 48 0 0 0 0 0 0 1 0 58 93 0 0 2 0 2 5
89 22 69 98 77 16 82 100 99 100 100 100 91 100 100 100 100 94 6 100 100 17 98 15 4 82 100 94 53 5 0 0 0 0 0 0 4 5 5 4 5 84 2 0 0 5 10 0 5
38 70 98 100 98 61 66 99 100 100 100 90 100 100 100 100 83 25 100 69 2 64 56 9 56 5 5 35 0 0 0 0 0 0 0 5 5 5 6 5 5 5 3 0 31 3 80 1 5
96 100 100 100 90 52 21 96 100 100 43 100 100 100 100 100 71 100 94 98 100 100 54 0 0 0 0 0 0 0 0 4 5 2 4 5 5 68 5 3 5 5 5 1 5 1 3 5 5
100 100 100 100 100 100 83 100 100 85 62 100 100 100 100 100 100 63 84 40 1 1 0 0 0 0 0 0 0 0 4 0 7 88 84 5 47 99 5 37 89 28 5 0 5 5 3 5 5
100 100 100 100 100 100 73 100 100 83 98 100 100 100 100 100 3 3 0 0 0 0 0 0 0 0 0 0 0 0 4 5 14 6 5 68 68 51 5 38 49 5 5 1 5 5 6 5 28
100 100 96 100 95 100 99 100 100 100 100 100 100 7 87 6 5 0 0 0 0 0 0 0 0 0 0 0 0 0 4 22 52 5 24 46 43 13 24 60 24 31 5 4 0 4 100 91 89
100 57 29 100 100 100 91 100 100 100 100 100 3 83 64 96 66 0 0 0 0 0 0 0 0 0 0 0 0 0 9 5 5 18 5 5 50 12 100 5 36 40 8 8 0 2 100 96 38
14 3 60 100 100 100 100 100 100 100 100 87 97 12 99 51 4 3 0 0 0 0 0 0 0 0 0 0 0 2 22 52 100 99 20 64 38 88 100 14 6 34 5 83 3 4 60 75 33
13 99 100 100 100 100 100 100 100 100 100 100 69 6 0 0 9 0 0 0 0 0 0 0 0 0 0 0 4 96 100 100 54 83 90 81 51 5 98 35 8 21 5 61 6 5 55 6 5
95 100 100 100 100 100 100 100 100 100 96 88 4 5 2 0 0 0 0 0 0 0 0 0 0 0 0 0 7 81 100 99 64 97 100 84 43 66 99 19 10 81 10 54 10 57 98 7 5
100 100 100 100 100 100 100 81 90 100 99 2 1 21 4 0 0 0 0 0 0 0 3 2 0 0 0 0 18 10 82 43 99 100 100 91 66 85 100 93 5 83 56 96 96 15 3 51 41
100 100 78 6 17 31 37 100 100 52 0 17 95 12 52 5 0 0 0 0 0 1 2 0 0 0 0 0 1 4 97 96 100 97 95 100 86 100 100 99 5 81 64 94 96 7 5 56 38
100 100 100 100 100 100 86 35 2 5 2 4 2 4 1 3 0 0 0 0 0 0 0 0 0 0 0 5 0 19 100 100 71 36 9 80 100 100 100 100 8 84 92 89 100 3 5 56 55
100 100 100 100 100 100 98 98 4 0 2 5 0 0 0 0 0 0 0 0 0 0 0 0 0 0 6 17 0 8 86 97 100 56 61 100 100 99 100 100 5 48 85 100 6 19 5 73 100
100 100 100 100 97 12 0 3 3 3 4 26 1 0 0 0 0 0 0 0 0 0 0 0 0 0 0 2 5 7 98 100 100 100 59 100 100 98 100 78 13 34 11 100 34 5 6 39 47
34 90 24 47 5 0 64 2 0 43 31 8 25 0 0 0 0 0 0 0 0 0 0 0 0 0 0 0 7 59 100 100 100 81 18 100 100 100 100 99 41 79 95 100 94 9 66 92 100
94 74 54 0 5 3 18 24 98 6 14 94 4 48 0 0 0 0 0 0 0 0 0 0 0 0 0 0 1 5 95 100 100 33 95 67 56 83 98 100 100 100 100 100 100 100 100 86 100
3 28 85 33 24 0 0 4 5 42 60 7 5 0 0 0 0 0 0 0 0 0 0 0 0 0 0 0 0 20 100 100 100 70 69 51 76 79 90 100 100 100 100 98 100 100 100 100 100
0 12 91 61 0 0 0 0 5 6 77 5 4 5 0 0 0 0 0 0 0 0 0 0 0 0 0 0 1 38 100 100 100 85 32 60 79 76 90 99 100 100 99 99 100 100 100 100 100
0 0 12 5 2 0 0 1 5 15 31 5 5 0 0 5 0 0 0 0 0 0 0 0 0 0 0 0 0 81 100 100 100 98 73 34 6 78 67 99 100 100 100 100 100 100 100 100 100

GFSSGP_prec_cloud_021.txt.gz
Cloud_Cover
100 100 97 26 7 2 4 97 52 95 53 74 98 100 100 100 45 16 42 50 5 3 0 0 4 0 0 1 1 0 8 100 100 100 90 0 5 59 100 100 99 76 4 0 0 0 0 0 0
100 100 100 76 8 4 3 7 5 28 28 98 98 100 91 59 26 41 40 46 4 3 5 1 0 1 0 0 0 49 100 100 100 100 4 3 27 97 100 100 82 7 0 7 3 0 0 0 0
100 100 100 92 33 74 5 5 5 25 28 99 77 14 98 23 14 84 70 5 5 8 5 5 5 2 5 3 20 100 100 100 52 4 3 4 59 100 100 100 100 100 5 1 6 71 0 0 0
100 100 100 100 100 19 5 20 5 19 40 22 52 49 78 53 94 15 5 12 99 100 37 5 17 66 38 100 100 100 100 64 91 91 100 100 2 10 79 100 100 72 5 1 0 0 0 0 0
100 98 100 100 100 5 2 44 5 35 41 63 5 8 99 100 58 5 5 38 97 53 5 5 5 5 75 100 100 100 100 100 89 100 100 36 0 1 4 53 8 1 0 1 0 0 0 0 0
82 25 75 100 100 48 0 5 5 100 100 44 5 89 100 92 5 5 61 94 100 8 5 5 1 5 96 100 100 100 100 100 25 55 29 2 0 0 0 0 0 0 0 0 0 0 0 0 0
47 5 94 100 100 99 1 1 5 9 71 98 58 5 5 8 5 42 87 99 13 36 5 0 31 100 100 100 100 100 12 3 5 14 4 26 26 26 0 0 2 0 1 0 0 0 0 0 0
46 16 43 100 67 72 12 6 20 100 100 54 5 5 26 51 5 6 43 5 5 2 3 5 77 94 100 100 71 5 0 0 0 5 5 5 5 18 100 100 100 92 98 97 90 1 0 0 0
30 5 72 95 10 15 98 58 32 65 73 5 5 21 32 60 95 100 37 5 4 5 7 98 35 100 90 5 0 4 5 9 0 0 0 0 0 0 0 0 16 66 1 10 2 0 0 0 0
37 5 57 81 27 5 75 71 56 66 6 5 5 58 97 70 80 57 6 5 5 19 56 31 69 11 75 3 0 0 0 0 0 0 0 0 0 0 0 0 4 2 2 1 1 1 0 0 12
31 9 68 75 63 22 53 100 100 7 7 41 96 52 59 82 70 23 5 8 5 4 71 7 88 100 13 0 0 0 0 0 0 0 0 0 0 0 0 0 0 5 5 5 5 0 3 0 4
1 39 30 10 90 42 19 26 100 99 24 99 18 76 100 89 5 5 8 13 5 7 49 70 100 2 0 0 0 0 0 0 0 0 0 0 19 6 5 20 5 14 6 5 0 3 1 0 4
3 80 6 92 100 100 41 5 5 89 92 88 5 79 86 42 57 100 98 5 5 92 23 85 2 0 0 0 0 0 0 3 0 0 0 10 18 14 5 12 6 33 1 2 0 12 17 5 6
99 99 100 100 100 100 71 5 88 100 100 29 15 72 100 100 100 69 34 5 5 3 10 3 0 0 0 0 0 0 0 0 0 1 5 54 18 19 23 35 64 13 1 0 7 18 23 20 7
100 100 100 100 100 48 76 64 100 78 7 96 5 5 24 100 85 81 5 5 5 3 1 0 5 0 0 0 0 0 0 0 0 2 5 11 7 6 24 16 27 6 6 5 6 11 19 17 5
100 100 100 100 100 92 70 100 100 5 5 8 24 5 59 100 99 26 5 5 0 5 5 0 5 3 0 0 0 0 0 0 0 8 33 5 5 6 5 12 7 9 22 22 14 24 26 20 9
100 100 92 100 100 29 98 100 5 4 5 98 6 30 100 83 90 5 5 4 0 8 2 0 4 0 0 0 0 0 0 0 52 100 19 37 19 58 9 98 69 72 33 29 12 18 3 12 9
97 37 41 95 95 20 20 39 5 5 5 88 96 100 59 72 32 6 2 4 66 3 2 0 0 0 0 4 0 0 0 6 97 100 97 85 100 40 97 100 83 39 38 26 22 6 1 23 96
100 56 4 100 84 3 5 28 6 53 100 100 100 100 100 99 98 45 4 96 5 94 4 0 0 0 5 4 0 0 5 22 61 100 10 32 68 90 81 98 96 86 25 20 7 5 2 87 100
70 5 39 100 95 5 9 2 67 100 100 100 100 100 100 75 4 1 5 41 100 67 1 0 5 5 5 0 0 0 5 17 100 82 13 51 80 18 100 100 95 99 14 20 7 5 68 100 89
67 70 100 100 45 5 0 20 6 100 100 100 100 100 82 5 4 6 32 100 25 4 0 4 5 5 0 0 0 1 5 56 100 84 99 13 13 100 80 99 90 24 24 36 7 29 88 100 98
8 100 100 91 24 3 3 23 98 100 100 100 100 6 76 36 58 0 24 13 1 0 0 0 0 0 0 0 0 3 5 25 98 88 7 5 76 100 86 50 5 70 55 25 9 98 90 79 36
100 100 98 98 3 4 70 100 100 100 100 100 20 20 56 72 0 0 0 0 0 0 0 0 0 0 0 0 0 4 0 75 100 47 5 5 88 100 67 9 5 18 9 5 93 38 26 50 7
100 24 5 2 3 17 18 36 79 99 90 100 5 79 49 38 0 0 0 0 0 0 0 0 0 0 0 0 0 0 79 100 16 5 8 29 89 78 98 30 22 46 63 7 100 5 60 5 48
5 43 27 68 93 90 94 13 9 5 47 100 46 19 20 3 4 1 0 0 0 0 0 0 0 0 0 0 4 1 100 97 5 5 30 100 98 84 100 5 22 45 5 9 100 77 5 9 100
100 100 88 84 100 100 17 21 3 67 100 91 39 42 5 5 5 0 0 0 0 0 0 0 0 0 0 0 0 56 100 39 13 98 41 61 72 55 16 5 67 6 5 5 80 37 54 100 100
100 100 100 99 65 3 0 100 100 100 100 19 5 5 16 5 5 0 0 0 0 0 0 0 0 0 0 0 4 94 100 5 49 20 73 99 83 55 56 7 10 5 5 5 5 5 100 100 100
11 9 88 4 3 44 100 100 100 100 75 4 11 5 5 5 1 0 0 0 0 0 0 0 0 0 0 0 63 100 100 5 38 98 51 51 23 65 38 31 5 5 7 7 19 48 100 100 100
88 15 3 29 37 96 100 100 88 100 45 62 18 5 68 4 0 0 0 0 0 0 0 0 0 0 0 0 84 100 95 5 22 5 72 5 18 77 7 20 12 32 65 69 99 100 100 100 100
6 24 69 98 100 90 5 80 100 100 96 77 5 5 4 0 0 0 0 0 0 0 0 0 0 0 0 0 89 100 7 5 6 52 20 61 24 8 12 42 99 57 63 100 100 100 100 100 100

GFSSGP_prec_cloud_024.txt.gz
Cloud_Cover
100 100 99 14 5 5 5 11 5 38 96 100 100 62 26 5 95 90 89 74 25 5 3 3 0 0 0 0 0 0 0 0 0 5 35 45 69 7 4 0 4 11 9 1 0 1 1 0 0
100 100 100 100 98 59 4 51 5 5 32 100 81 9 28 73 59 34 38 5 5 4 0 0 0 0 0 0 0 0 2 2 1 94 100 67 65 6 11 58 12 71 100 79 42 100 34 5 0
99 100 100 100 100 100 23 8 6 5 6 92 96 52 40 20 100 66 94 79 35 5 0 0 1 0 0 0 0 0 0 0 27 100 100 100 31 38 5 92 5 98 100 97 23 97 98 5 1
95 100 100 99 19 52 52 5 6 96 12 4 22 5 82 5 24 100 100 66 67 15 4 2 5 5 0 4 0 4 0 3 78 100 99 86 5 5 33 29 70 5 100 100 100 19 5 2 8
26 90 100 100 96 5 5 5 5 5 32 6 5 8 36 5 7 80 5 89 100 95 16 5 5 4 3 5 5 5 26 26 51 5 5 5 4 4 5 65 100 59 7 100 100 100 99 15 5
48 66 97 100 100 10 5 5 5 5 5 90 43 31 63 82 14 16 18 26 100 78 5 0 0 3 0 5 5 72 6 32 5 3 4 31 0 0 4 2 5 0 0 11 38 27 41 14 3
47 71 73 100 100 76 49 4 5 2 14 80 53 10 62 90 20 12 100 96 76 15 1 0 0 0 4 5 5 2 58 42 1 0 0 1 55 30 2 0 0 0 0 0 0 1 0 0 0
50 49 100 100 100 100 36 5 5 15 5 99 14 25 98 52 33 75 78 5 79 12 1 0 10 3 3 1 4 2 2 0 0 0 0 0 0 0 4 5 5 4 10 0 3 0 0 0 0
32 9 77 100 100 5 5 19 16 6 61 42 5 53 78 11 84 49 53 64 90 6 1 0 22 23 5 5 6 0 0 0 0 0 0 0 0 0 0 0 0 0 0 43 5 5 0 16 13
5 5 67 100 61 5 6 35 43 5 10 66 45 47 15 42 99 81 99 60 5 3 5 5 12 5 0 0 0 0 0 0 0 0 0 0 0 1 0 0 0 0 2 3 3 4 2 0 0
100 79 64 69 100 5 65 98 20 5 87 100 65 96 13 87 36 78 31 5 5 5 5 6 5 2 0 0 0 0 0 0 0 0 0 0 0 0 0 0 0 0 0 5 5 5 4 0 0
6 67 97 70 69 9 100 100 56 97 65 91 91 92 8 98 70 20 5 0 0 4 5 5 4 5 0 0 0 0 0 0 0 0 0 7 4 1 2 11 2 6 9 6 5 5 5 0 3
23 65 42 21 93 100 100 59 8 88 100 13 65 25 19 68 38 16 4 0 42 51 4 5 23 5 5 0 0 0 0 0 0 0 0 2 9 11 5 5 11 13 6 5 0 0 4 17 3
29 7 15 33 100 100 100 8 24 100 6 5 13 73 93 86 6 5 1 2 92 44 100 100 97 99 5 0 0 0 0 0 0 0 0 0 2 17 16 16 16 30 12 4 0 0 17 30 23
5 28 90 100 100 100 92 28 100 90 86 20 100 42 41 34 5 0 5 5 5 6 1 16 10 5 2 0 0 0 0 0 8 16 0 0 9 16 13 24 33 36 12 3 2 3 33 44 27
5 12 84 100 100 99 49 87 100 100 54 50 37 40 4 5 5 2 5 13 5 16 5 18 5 0 0 0 0 0 0 0 10 11 8 0 5 6 12 25 22 12 15 7 16 19 48 52 34
100 100 100 100 100 90 97 100 100 91 14 5 3 5 5 5 4 1 14 47 9 100 100 20 5 5 0 0 2 5 5 0 5 14 20 7 18 12 27 76 38 57 39 40 25 30 8 46 32
100 100 100 98 100 83 16 14 100 100 18 1 5 5 5 5 1 25 96 11 4 26 100 79 5 0 0 5 5 5 5 0 4 12 6 18 74 76 75 22 6 55 95 61 56 8 22 5 1
100 96 86 98 100 73 5 4 52 85 2 3 5 9 5 5 0 100 14 4 2 87 75 100 0 0 5 5 5 5 0 0 4 5 5 11 97 100 95 71 65 86 100 100 50 6 25 50 45
5 5 22 100 100 4 4 0 43 5 0 5 5 37 27 0 90 48 5 0 5 58 5 5 0 0 0 2 5 3 0 0 8 7 24 53 96 100 72 84 96 100 100 81 70 17 30 33 34
23 2 100 100 59 0 0 0 4 16 18 44 18 98 4 82 100 5 1 2 5 4 5 0 0 0 0 5 3 0 0 0 0 46 100 100 100 100 96 100 63 76 40 54 100 5 6 29 86
8 43 100 100 47 0 0 1 3 77 56 89 7 15 21 98 47 4 0 0 0 0 0 0 0 0 4 2 0 0 0 3 6 99 56 100 83 92 35 50 72 19 29 35 66 5 79 99 89
4 100 100 100 4 0 0 0 100 5 35 9 100 63 34 49 5 0 0 0 0 0 0 0 0 0 0 0 0 0 0 5 44 18 5 100 100 100 67 94 58 18 97 20 30 76 96 87 82
100 100 100 75 0 0 20 40 100 5 81 77 7 1 5 52 5 3 0 0 0 0 0 0 0 0 0 0 0 0 5 6 57 74 57 38 98 84 25 71 14 76 25 5 6 63 94 38 75
53 44 9 0 0 1 100 97 100 9 83 8 5 2 44 6 5 0 0 0 0 0 0 0 0 0 0 0 0 0 5 68 94 100 68 96 95 55 41 12 82 100 5 18 5 5 19 28 96
96 99 100 96 92 93 100 100 52 5 94 99 5 20 88 5 3 1 0 0 0 0 0 0 0 0 0 0 0 1 5 48 98 99 16 80 93 55 5 50 100 100 5 86 3 5 23 10 99
91 5 62 77 100 100 100 99 5 16 100 100 8 100 5 5 5 0 0 0 0 0 0 0 0 0 0 0 0 5 89 39 6 5 5 57 18 29 10 7 74 83 5 5 5 6 6 39 90
16 74 3 4 54 11 6 62 99 100 100 100 27 74 8 5 2 0 0 0 0 0 0 0 0 0 0 0 0 20 23 82 33 34 24 5 5 30 11 5 5 5 5 5 35 62 69 100 100
86 12 0 8 3 4 90 100 68 94 100 55 11 97 32 6 0 0 0 0 0 0 0 0 0 0 0 0 5 34 63 8 5 5 5 5 5 11 100 5 14 32 64 61 100 100 100 100 90
98 6 8 6 77 100 100 100 100 100 100 71 93 100 33 5 0 0 0 0 0 0 0 0 0 0 0 0 37 90 8 5 5 5 5 77 22 19 72 97 44 100 100 100 100 100 100 99 100

GFSSGP_prec_cloud_027.txt.gz
Cloud_Cover
4 51 69 100 100 100 35 9 5 4 2 3 3 5 5 10 5 5 0 5 5 6 5 5 0 0 5 0 0 1 5 0 0 0 0 0 0 0 0 0 2 2 4 4 0 0 0 0 0
77 0 10 90 79 89 100 100 100 62 13 5 2 5 5 2 5 5 5 5 79 56 5 5 0 3 3 0 0 0 0 0 0 0 0 0 0 0 0 0 0 0 0 0 3 0 11 10 13
4 4 10 5 6 10 65 28 86 5 9 5 5 5 27 4 5 5 4 5 15 41 5 5 1 2 0 0 0 0 0 0 0 0 0 0 0 0 0 4 30 39 1 0 0 0 2 60 100
5 5 5 5 5 17 21 5 99 6 5 4 5 4 5 5 0 11 8 5 5 52 5 3 0 0 0 0 0 0 0 0 0 0 0 0 0 1 5 83 74 100 99 31 1 5 1 80 100
12 9 31 30 100 38 3 5 5 4 4 4 4 5 3 2 5 95 66 8 11 8 5 0 0 0 2 4 1 0 0 0 0 0 0 0 0 0 3 56 100 100 100 100 48 25 2 4 100
30 70 74 99 99 82 6 5 5 4 52 5 5 5 4 5 5 14 5 16 96 5 5 0 0 2 0 1 0 0 1 2 0 0 0 0 0 0 0 0 4 24 79 100 89 95 97 6 11
6 40 14 74 100 98 65 5 5 5 19 5 7 4 35 5 8 5 5 13 73 5 5 0 0 0 0 0 0 0 3 0 0 0 0 0 0 0 0 0 0 0 2 2 3 16 78 1 2
98 10 100 100 100 100 72 12 87 20 5 5 5 5 11 90 12 5 72 90 5 5 9 5 5 0 0 0 1 1 0 0 0 0 0 0 0 0 0 0 0 0 0 2 5 5 0 2 0
10 65 100 100 100 100 8 48 25 5 5 3 5 5 5 98 5 5 34 100 38 5 46 71 5 1 0 5 0 0 0 0 0 0 0 0 0 0 0 0 0 0 0 0 0 0 0 0 0
12 100 98 100 100 51 5 33 81 13 5 15 10 5 20 62 18 20 84 95 49 5 80 43 5 5 1 0 0 0 0 0 0 0 0 0 0 0 0 0 0 0 0 0 2 0 5 2 50
92 91 95 85 100 10 63 30 5 97 22 94 5 58 100 60 73 56 99 100 92 5 76 9 5 4 5 4 0 0 0 0 0 0 0 0 0 0 0 14 1 0 0 1 0 2 3 0 53
53 69 53 96 54 5 76 94 100 13 98 74 4 5 5 5 5 28 100 100 68 40 93 95 2 5 5 5 5 2 0 0 0 0 0 0 0 2 0 0 0 3 3 2 5 4 5 5 11
18 32 40 30 69 51 75 99 100 98 98 62 6 6 5 22 5 9 54 73 95 55 40 19 44 13 9 5 2 2 0 0 0 0 0 0 0 0 4 9 5 5 9 5 5 5 2 4 15
30 33 88 73 100 100 87 100 60 96 100 8 2 0 5 38 5 31 36 44 67 4 1 13 5 5 1 5 1 0 0 0 0 0 0 0 0 0 10 28 13 6 23 23 5 8 7 22 19
7 6 17 97 100 100 100 100 12 68 31 0 2 91 95 44 8 10 3 5 0 0 0 5 65 3 5 5 5 0 3 5 5 0 0 0 14 24 49 60 58 27 68 28 28 23 15 36 36
5 5 5 60 100 100 100 68 0 90 4 0 65 88 94 27 5 2 0 0 0 0 5 7 36 74 78 5 1 1 5 3 0 0 0 0 21 37 59 72 59 55 92 72 23 40 54 32 42
34 5 38 100 100 100 92 1 5 26 25 14 100 87 94 7 1 0 0 0 0 0 5 5 86 75 96 5 0 5 0 0 0 0 0 3 18 24 60 56 95 58 37 21 35 86 54 61 79
100 97 65 21 26 52 34 1 69 100 94 82 100 100 67 7 0 0 0 0 0 4 1 43 72 96 6 0 1 1 2 1 0 0 0 10 18 33 52 66 50 59 55 84 87 99 100 93 48
0 2 5 4 39 14 6 24 100 100 99 99 100 90 5 0 0 0 0 0 0 1 1 78 5 5 5 2 0 0 0 0 0 0 5 25 77 92 69 56 66 64 100 100 100 100 84 72 45
0 0 0 3 64 11 4 18 5 82 5 49 100 41 4 0 0 5 4 4 0 0 2 3 4 5 5 0 0 0 0 0 0 1 20 95 59 62 70 62 93 100 100 97 86 78 67 98 47
0 0 1 2 68 97 5 22 2 14 2 71 100 6 1 5 5 13 10 0 0 0 0 0 0 0 0 0 0 0 0 0 0 2 7 12 10 53 81 100 98 100 76 54 89 100 78 33 63
1 3 6 89 100 29 82 16 0 0 0 0 5 31 4 5 64 76 0 0 0 0 0 0 0 0 0 0 0 0 0 0 0 5 99 47 65 92 96 100 83 46 53 68 91 46 39 82 51
27 98 100 100 99 11 5 17 78 0 4 70 11 0 6 92 74 0 0 0 0 0 0 0 0 0 0 0 0 0 0 0 2 58 82 77 98 100 100 100 72 57 52 61 31 38 95 26 5
100 84 60 70 65 78 3 5 99 21 26 2 10 11 7 15 0 1 0 0 0 0 0 0 0 0 0 0 0 0 0 0 5 8 63 96 99 100 80 26 23 47 13 13 64 72 20 99 58
5 80 83 89 91 2 2 0 100 57 5 5 6 4 22 5 4 0 0 0 0 0 0 0 0 0 0 0 0 0 0 5 5 28 35 78 100 91 40 28 92 80 2 3 100 19 100 100 100
100 80 12 41 5 3 5 25 100 50 5 88 5 59 58 5 0 0 0 0 0 0 0 0 0 0 0 0 0 0 41 5 7 29 82 68 87 50 37 63 94 4 0 41 5 85 52 34 69
65 1 45 5 0 0 98 100 100 5 35 94 7 71 30 10 0 0 0 0 0 0 0 0 0 0 0 0 0 3 39 4 5 57 54 59 61 50 25 5 9 32 2 4 5 54 100 100 100
1 90 3 0 0 3 100 100 100 54 100 100 29 42 100 7 5 0 0 0 0 0 0 0 0 0 0 0 5 4 1 5 5 8 29 56 57 41 14 18 7 9 12 0 2 76 90 64 100
1 0 0 0 2 18 100 100 100 62 100 76 5 56 98 54 5 0 0 0 0 0 0 0 0 0 0 0 4 5 0 0 5 14 100 62 50 44 36 18 5 13 5 4 5 7 99 86 100
98 5 5 0 77 100 100 100 100 96 100 60 99 100 100 96 1 0 0 0 0 0 0 0 0 0 0 0 5 0 4 4 5 53 50 73 100 47 39 25 23 69 86 78 93 100 99 100 100

GFSSGP_prec_cloud_030.txt.gz
Cloud_Cover
100 100 100 99 19 98 32 96 100 81 80 71 5 6 5 0 0 5 5 3 1 12 5 5 33 50 3 0 0 0 0 0 0 0 0 0 0 0 0 0 0 0 0 0 0 0 0 0 0
75 98 75 100 4 94 19 2 5 6 5 18 5 5 5 0 0 0 2 2 4 34 5 5 44 5 5 0 0 0 0 0 0 0 0 0 0 0 0 0 0 0 0 0 0 0 1 1 0
78 16 85 24 7 12 39 2 5 4 0 4 5 3 13 0 0 1 4 2 3 11 5 5 5 0 0 0 0 0 0 0 0 0 0 0 0 0 0 0 3 0 0 0 4 5 5 40 98
75 40 9 62 5 5 5 5 0 0 2 5 5 13 6 0 5 5 0 5 5 5 55 5 0 0 0 0 0 0 0 0 0 0 0 0 0 0 0 0 0 1 3 3 3 5 6 99 100
47 18 53 96 59 22 5 5 0 5 5 5 5 7 3 0 5 3 0 0 0 4 5 5 2 5 5 0 0 0 0 0 0 0 0 0 0 0 0 0 0 0 2 41 8 5 88 5 85
76 20 5 34 84 19 19 6 92 93 92 50 37 15 4 1 5 2 0 2 0 3 5 5 2 2 2 2 0 0 0 0 0 0 0 0 0 0 0 0 0 0 0 10 99 93 49 97 79
100 100 100 100 92 82 81 5 5 63 90 100 100 93 4 5 5 12 5 3 2 5 5 5 5 4 5 0 0 0 0 0 0 0 0 0 0 0 0 0 0 0 0 0 2 73 100 14 79
100 100 100 100 100 100 18 8 43 96 44 62 5 5 5 5 51 25 6 4 5 5 5 5 5 5 3 0 0 0 0 0 0 0 0 0 0 0 0 0 0 0 0 0 0 0 0 70 62
92 100 100 100 100 100 12 17 97 18 17 59 26 57 45 5 86 10 5 5 5 22 6 52 32 5 15 0 0 1 0 0 0 0 0 0 0 0 12 42 0 0 0 0 0 1 2 0 0
89 62 100 100 30 64 8 45 53 8 47 32 7 5 9 13 94 5 5 5 8 74 7 5 16 5 79 0 4 2 0 2 0 0 0 0 0 0 0 4 0 0 0 0 0 0 0 0 22
97 80 28 66 89 97 13 19 84 98 100 100 5 31 72 94 5 5 5 47 5 94 12 62 5 5 37 5 0 5 1 0 0 0 0 0 0 1 17 22 99 93 65 25 30 36 0 0 59
24 5 52 26 89 100 71 89 92 97 99 87 5 5 5 5 5 5 5 5 16 78 97 44 46 5 1 4 5 5 2 0 0 0 0 0 0 14 16 21 100 100 58 81 64 24 42 33 5
59 5 5 43 5 94 95 62 100 99 100 11 5 5 28 23 3 72 58 5 6 46 99 90 5 4 4 0 4 40 19 4 0 1 5 0 0 1 21 91 88 69 100 100 100 57 8 43 38
5 5 21 73 34 92 98 100 100 100 100 8 5 5 39 5 6 98 5 9 100 95 64 5 5 0 1 5 77 89 60 5 0 5 0 0 0 11 42 86 79 100 100 100 53 100 46 28 50
2 1 4 4 58 68 99 99 100 65 97 5 5 5 3 4 73 18 5 98 100 24 5 5 0 0 5 5 10 68 12 2 5 1 0 0 0 26 46 27 60 33 96 93 99 30 40 47 63
2 5 4 95 73 78 53 5 83 19 95 3 0 5 83 6 34 6 98 100 85 6 5 1 0 5 32 35 36 29 5 0 4 0 0 0 65 59 52 96 98 94 100 100 99 58 62 100 77
82 84 91 38 90 6 8 2 39 5 95 0 0 8 92 100 89 100 100 100 92 5 2 0 0 0 5 78 81 2 3 0 0 0 0 1 53 41 48 84 95 100 98 100 100 79 45 84 62
99 17 45 18 90 5 58 44 20 5 17 0 25 95 100 100 100 100 99 61 6 4 4 0 0 2 100 11 84 0 4 0 0 0 0 70 63 84 98 100 100 100 100 100 64 85 93 86 82
0 5 4 5 17 28 6 8 0 4 2 3 100 100 100 96 35 5 68 5 5 5 0 0 0 5 5 10 6 5 4 0 0 0 9 99 39 100 100 78 90 100 100 66 75 86 100 99 99
1 2 0 5 81 4 6 4 5 15 2 4 72 6 80 3 0 26 5 0 1 1 0 0 0 2 5 1 0 1 0 0 0 0 10 25 62 100 96 95 100 86 86 79 66 99 92 95 78
0 0 2 4 100 87 4 1 0 0 1 0 0 0 0 0 0 4 4 2 4 0 0 0 0 0 0 0 0 0 0 0 0 7 10 90 84 69 88 100 97 56 61 47 99 72 99 63 100
0 0 7 91 100 2 88 18 0 3 0 0 0 0 0 0 0 0 5 2 0 0 0 0 0 0 0 0 0 0 0 0 0 5 8 36 67 81 100 97 89 98 85 90 92 100 94 98 17
0 0 0 4 0 3 2 28 0 3 0 0 0 5 1 0 0 5 2 0 0 0 0 0 0 0 0 0 0 0 0 0 3 5 15 57 36 66 96 50 74 80 81 77 99 99 44 96 97
0 0 0 0 0 0 0 65 4 53 25 0 0 5 2 5 5 5 0 0 0 0 0 0 0 0 0 0 0 0 0 2 11 34 66 94 48 99 42 47 70 58 75 85 70 90 41 100 69
0 0 0 1 1 2 8 72 43 23 0 0 1 5 24 26 27 2 0 0 0 0 0 0 0 0 0 0 0 0 0 8 44 37 54 57 48 61 40 66 52 61 34 34 31 32 42 95 13
0 0 0 1 4 12 50 4 98 31 89 0 16 98 71 91 6 5 0 0 0 0 0 0 0 0 0 0 0 0 11 41 40 34 54 58 46 18 30 32 30 31 46 39 63 100 99 42 38
0 0 0 0 5 26 42 3 100 100 100 62 100 88 100 96 8 5 0 0 0 0 0 0 0 0 0 0 0 6 24 15 24 40 36 18 43 34 39 28 20 36 12 63 44 87 100 100 100
0 0 0 0 16 97 13 26 100 100 41 57 92 99 100 38 7 5 0 0 0 0 0 0 0 0 0 1 0 33 36 31 16 44 56 100 36 43 34 30 26 13 12 46 30 94 100 100 100
0 0 0 0 5 66 12 100 100 100 38 100 89 100 100 95 6 3 5 0 0 0 0 0 0 0 0 2 6 33 30 32 36 80 44 73 54 70 15 32 23 26 35 40 32 44 100 100 100
0 0 0 0 1 7 50 100 100 100 100 100 100 100 100 100 12 5 0 0 0 0 0 0 0 0 0 0 0 25 33 35 56 84 73 99 93 31 10 33 29 37 53 48 57 92 100 100 100

GFSSGP_prec_cloud_033.txt.gz
Cloud_Cover
100 100 100 100 95 92 63 88 100 98 78 38 75 81 63 5 1 4 0 3 5 5 13 5 5 7 5 1 0 1 0 0 0 0 0 0 0 0 0 0 0 0 0 0 0 0 0 0 0
100 100 100 100 100 100 100 100 100 51 28 5 5 5 5 5 2 0 5 0 0 5 55 14 5 5 4 3 3 5 4 0 0 0 0 0 0 0 0 0 0 0 0 0 0 0 0 4 0
100 100 97 100 100 100 100 100 99 96 5 5 5 4 4 5 1 0 0 2 1 5 5 5 5 5 2 0 0 0 0 0 0 0 0 0 0 0 0 0 0 0 0 0 0 2 0 0 13
100 100 86 82 75 88 67 97 100 35 89 5 5 15 37 5 0 2 5 5 5 4 3 5 5 5 1 4 4 0 0 0 0 0 0 0 0 0 0 0 0 0 0 0 1 8 2 0 2
100 100 100 60 28 74 80 79 91 72 18 10 13 100 100 18 2 2 4 5 5 5 0 2 9 5 12 5 1 0 0 0 0 0 0 0 0 0 0 4 2 0 0 0 0 1 0 0 8
100 100 100 79 100 100 92 21 5 5 5 35 26 71 21 5 5 2 5 14 5 0 0 5 4 5 12 5 0 0 0 0 0 0 0 0 0 0 0 0 0 0 0 8 0 0 14 0 5
100 100 100 100 100 100 100 97 70 100 98 100 95 100 92 80 76 5 5 62 5 0 0 5 5 3 40 4 0 0 0 0 0 0 0 0 0 0 0 1 0 0 0 0 0 0 0 0 2
100 100 99 100 100 100 100 99 100 100 100 100 100 100 100 98 10 53 47 61 4 4 0 5 5 2 0 5 0 0 0 0 0 0 0 0 0 0 0 0 0 0 0 0 0 0 0 0 0
100 67 100 100 100 100 100 98 74 79 100 100 100 83 7 1 5 13 59 5 4 0 0 5 3 4 5 4 0 0 0 0 0 0 0 0 0 0 0 49 12 0 0 0 0 0 0 0 0
100 100 100 100 99 96 99 100 98 74 99 71 64 90 96 98 57 11 4 4 5 84 45 5 5 5 5 5 3 0 0 1 0 0 0 6 21 0 0 6 6 0 0 0 0 0 0 0 0
100 42 100 100 100 98 98 100 100 98 85 100 75 54 89 100 99 6 3 5 12 24 89 1 3 5 5 5 0 0 0 0 3 5 3 0 0 0 0 3 91 92 11 91 95 29 41 55 16
100 60 71 98 100 100 88 100 100 82 99 32 84 7 5 6 17 5 5 23 34 92 81 80 5 47 72 4 0 0 0 2 5 5 4 0 0 0 1 1 30 87 100 100 100 100 100 100 100
96 100 58 5 9 48 84 38 35 58 90 18 7 54 67 87 5 5 0 3 31 25 5 15 12 67 98 5 0 0 0 5 5 5 0 0 0 0 0 10 38 51 97 68 27 20 85 100 100
100 87 18 29 39 52 99 100 100 83 71 5 4 5 10 27 88 40 5 6 5 5 44 100 100 40 5 5 1 0 20 63 80 4 0 0 0 0 0 4 6 100 86 36 13 35 22 100 85
36 83 93 41 44 60 90 5 28 88 6 5 5 5 5 59 79 81 5 5 0 14 100 100 100 5 30 5 0 4 5 90 85 0 0 0 0 4 1 1 97 73 8 14 16 30 7 100 97
7 43 5 100 100 51 100 11 1 5 6 5 4 5 5 90 100 64 5 28 5 96 100 100 27 5 5 2 1 85 99 100 49 0 0 0 1 12 9 36 78 47 16 56 60 97 92 6 74
4 25 100 100 90 87 100 0 0 71 4 1 2 3 4 33 100 98 49 75 100 100 100 34 0 0 1 7 4 82 66 69 7 2 0 2 4 14 22 78 58 100 100 100 89 93 56 48 5
80 70 17 45 100 100 98 17 40 8 0 0 72 28 4 100 100 100 49 77 100 100 23 0 0 0 0 3 9 42 5 43 5 0 0 3 3 25 92 70 34 76 100 100 51 56 50 88 9
34 2 5 85 100 99 5 8 100 47 5 0 5 47 5 100 34 3 0 17 75 7 0 0 0 0 2 7 8 5 6 5 0 0 0 0 6 68 100 22 50 100 76 96 36 68 76 31 66
0 0 3 3 39 95 92 27 97 37 1 2 4 0 0 3 1 0 0 3 3 0 0 0 0 1 0 0 1 0 0 0 0 5 20 11 10 59 1 31 38 94 97 88 57 21 28 69 100
0 0 0 0 2 69 85 76 3 6 5 0 0 0 4 0 0 0 0 1 0 0 0 0 0 0 0 0 0 0 0 0 0 0 0 1 14 96 11 24 65 52 53 10 5 28 85 95 74
0 0 0 0 5 44 47 17 0 1 4 2 0 85 13 0 0 0 4 5 4 3 0 0 0 0 0 0 0 0 0 0 4 0 0 5 25 96 100 84 92 31 29 47 10 22 94 53 36
0 0 0 0 0 0 0 3 5 0 0 0 68 3 2 0 0 0 5 35 5 3 0 0 1 0 0 0 0 0 0 0 0 0 5 8 100 100 100 77 85 31 5 18 56 81 5 10 90
0 0 0 5 2 2 0 3 0 3 1 5 24 6 5 0 0 0 3 94 5 2 0 0 0 3 0 0 0 0 0 0 0 9 41 7 28 86 47 96 6 17 22 98 39 1 33 61 100
0 0 0 1 0 0 0 4 0 66 0 3 0 4 3 0 5 0 36 32 9 0 0 0 0 0 0 0 0 0 0 0 2 21 10 82 28 20 5 97 8 15 31 20 12 42 97 63 77
0 0 0 0 0 0 0 1 0 4 0 0 0 0 0 24 50 25 85 94 0 2 0 0 0 0 0 0 0 0 0 17 44 34 22 89 96 7 22 76 37 15 14 94 89 21 23 36 16
0 1 0 0 0 0 2 100 89 1 0 0 0 0 2 5 90 100 100 5 5 1 0 0 0 0 0 0 0 2 18 9 54 14 19 8 76 15 97 45 12 7 60 99 46 54 100 99 90
0 0 0 0 0 1 27 65 100 74 0 0 5 4 27 94 100 100 17 5 5 3 0 0 0 0 0 0 0 22 100 73 99 45 60 32 25 100 13 59 12 71 75 100 85 99 98 100 100
0 17 0 0 0 1 61 100 89 2 0 32 67 10 99 100 100 100 100 42 5 1 0 0 0 0 0 0 1 92 100 100 98 48 21 38 54 39 88 23 15 29 16 50 93 100 100 100 100
0 2 2 0 0 6 99 100 5 1 5 85 99 100 100 100 77 88 71 28 4 0 0 0 0 0 0 0 0 69 100 100 39 97 11 69 26 58 100 97 100 100 49 66 85 88 73 98 100

GFSSGP_prec_cloud_036.txt.gz
Cloud_Cover
100 100 100 100 100 100 100 100 100 100 100 100 100 88 25 5 5 4 3 2 5 2 5 5 8 97 64 28 5 0 0 0 0 0 0 0 0 0 0 0 0 0 0 0 0 0 0 0 0
100 100 100 100 100 100 100 88 100 100 100 100 100 70 18 84 5 1 28 5 5 4 4 0 1 5 5 12 73 5 0 0 0 0 0 0 0 0 0 0 0 0 0 0 0 0 0 0 0
100 92 100 100 100 100 100 100 100 100 100 100 100 100 16 8 17 4 98 57 14 9 5 4 2 5 37 5 53 1 0 0 0 0 0 0 0 0 0 0 0 0 0 0 0 2 2 1 0
100 100 100 100 100 100 100 100 100 100 100 100 100 5 28 40 5 0 97 63 0 4 1 0 0 1 10 32 5 0 0 0 0 0 0 0 0 0 0 0 0 0 0 0 2 4 3 0 0
100 100 100 100 100 100 100 99 100 97 82 96 96 52 3 6 5 2 0 2 5 5 1 0 0 2 30 100 7 0 0 0 0 0 0 0 0 0 0 0 0 2 1 0 0 0 0 0 2
100 100 100 100 100 100 100 83 84 90 97 53 81 97 94 9 5 5 5 18 72 31 0 1 0 2 72 90 1 4 4 0 1 1 0 0 0 0 0 0 0 0 0 0 1 0 0 0 7
100 100 100 100 100 100 100 100 100 86 100 100 86 82 98 24 50 82 33 100 94 1 0 1 0 2 45 5 0 5 0 0 5 0 0 0 0 0 0 0 0 0 0 0 0 0 0 0 0
100 100 100 100 100 100 100 100 100 100 97 67 100 100 100 100 85 100 100 52 10 31 5 4 2 0 5 5 0 0 0 4 4 0 0 0 0 0 0 0 0 0 0 0 0 0 0 0 0
100 96 100 100 100 100 100 100 100 100 100 100 100 100 100 100 61 5 5 5 5 22 54 22 9 5 4 5 3 5 4 5 2 0 0 0 0 0 0 0 0 0 0 0 0 0 0 0 0
100 100 100 100 100 100 100 100 100 100 99 78 100 100 100 98 20 40 42 36 5 5 8 18 74 83 5 5 5 5 5 4 4 0 0 0 0 0 0 0 0 0 0 0 0 0 0 0 0
100 100 100 100 100 100 100 100 100 97 98 100 97 100 62 27 97 25 57 100 66 86 5 5 24 5 5 2 5 5 79 5 2 0 4 5 5 0 0 0 0 0 0 0 0 0 0 0 0
100 100 98 99 100 100 100 100 100 99 80 98 98 66 25 5 5 5 96 100 100 42 24 5 0 5 5 0 4 7 90 5 0 5 5 75 16 0 0 0 0 0 64 6 11 2 8 78 26
100 100 100 100 100 83 82 100 100 100 100 100 100 71 5 64 15 5 61 99 97 5 6 14 5 15 4 4 7 5 5 5 0 1 27 18 58 0 0 0 37 9 11 0 53 100 0 0 26
100 99 63 61 58 58 100 100 100 97 73 63 6 5 5 74 100 44 100 100 30 4 6 44 23 21 5 40 82 15 5 5 0 39 13 93 5 2 0 0 0 0 0 0 6 99 5 4 48
100 97 93 75 100 100 100 43 52 100 99 6 5 5 28 28 85 100 58 100 5 4 5 6 5 100 38 99 98 38 5 5 3 80 64 5 5 4 0 0 0 0 0 0 4 14 35 12 6
53 99 5 100 100 100 100 25 100 83 53 3 5 33 100 97 72 100 5 99 68 5 4 77 98 98 97 70 50 86 5 5 5 51 5 5 5 5 0 0 6 0 5 2 75 87 90 38 13
5 3 29 100 100 70 59 8 58 14 5 0 2 3 23 4 66 60 3 36 3 0 5 10 58 8 5 0 5 56 2 0 76 10 5 5 2 4 0 7 13 0 0 5 5 77 100 36 5
38 93 52 16 89 39 66 19 54 11 62 6 100 17 2 3 16 24 0 4 5 1 5 3 0 0 0 0 0 7 18 12 37 6 5 0 0 2 53 47 2 0 0 6 27 88 40 5 12
100 46 1 0 18 8 21 4 3 5 92 6 9 6 11 94 5 4 9 0 1 0 0 0 5 3 0 0 4 44 5 5 2 0 0 0 0 0 47 24 0 0 1 6 87 100 85 14 29
0 0 0 28 99 69 92 12 0 5 60 41 30 40 75 3 45 85 6 0 0 0 0 5 9 5 2 0 0 0 0 0 0 2 14 0 0 0 0 2 4 52 14 72 94 52 11 93 63
0 0 0 0 2 2 2 1 0 37 29 65 5 40 3 1 0 0 2 0 0 0 0 5 96 25 5 0 0 1 2 2 0 4 0 0 0 0 1 8 72 91 34 14 32 5 5 5 8
0 0 0 0 0 0 0 6 0 11 0 3 3 5 3 0 2 38 4 0 0 0 5 64 97 54 2 0 0 0 0 0 0 0 99 0 4 5 56 59 49 71 10 5 5 19 38 54 44
0 0 0 0 0 0 0 2 4 0 0 0 0 0 0 0 66 79 18 0 0 4 12 100 91 8 3 0 0 0 0 0 0 0 0 0 4 62 100 98 95 63 14 6 5 4 70 6 5
0 0 0 0 0 8 0 0 0 0 0 0 0 0 3 95 45 1 0 0 5 5 5 62 45 16 0 0 0 0 0 0 0 0 0 5 37 100 100 99 10 0 5 32 30 2 2 5 67
0 0 0 0 0 0 0 0 0 0 0 0 0 0 1 10 100 42 0 3 5 5 25 91 46 0 0 0 0 0 0 0 0 0 3 20 95 100 48 0 1 0 73 23 0 25 5 11 100
0 0 0 0 0 0 0 0 0 0 0 0 0 1 1 0 2 0 27 83 76 75 100 34 0 0 0 1 0 0 0 5 20 0 36 82 100 5 0 0 4 13 3 5 5 6 65 25 78
0 0 0 0 0 0 0 0 0 1 0 3 0 0 0 0 5 5 98 100 100 100 27 1 5 0 2 5 0 0 4 1 1 0 100 37 4 5 0 0 2 0 49 85 100 100 91 100 100
1 0 0 0 0 0 0 0 0 15 4 0 0 0 0 0 3 38 100 100 100 74 0 4 5 2 8 1 0 29 16 90 79 60 69 5 16 11 2 3 90 65 100 100 94 96 100 100 100
3 2 2 0 0 0 0 0 88 96 32 0 0 0 2 0 6 60 100 100 95 5 19 5 1 0 0 0 0 90 66 94 56 5 3 5 27 40 3 1 2 45 66 98 100 100 48 100 100
99 19 13 0 0 0 0 0 0 4 1 0 0 1 62 1 62 100 100 42 5 61 7 0 0 0 0 0 7 93 100 96 80 5 5 5 20 84 99 62 58 49 100 98 33 46 100 100 100

GFSSGP_prec_cloud_042.txt.gz
Cloud_Cover
100 100 100 100 100 100 100 100 100 100 92 100 73 96 100 91 57 54 1 5 15 55 4 2 5 3 3 0 0 0 7 7 2 0 0 0 0 0 0 0 0 0 0 0 0 0 0 0 0
100 100 100 100 100 100 100 100 100 100 100 100 100 72 20 100 100 72 36 17 100 100 5 0 0 5 1 0 4 5 86 16 2 0 0 5 0 0 0 1 0 0 0 0 0 0 0 0 0
100 100 100 100 100 100 100 100 100 100 97 58 80 51 53 96 100 100 99 100 100 32 2 0 0 5 5 4 5 40 9 39 2 0 0 0 0 0 0 0 0 0 0 0 0 0 0 0 0
100 100 100 100 100 100 100 100 100 100 100 100 49 46 39 84 100 100 100 100 100 4 3 4 5 5 5 5 98 97 9 95 0 3 0 0 0 0 0 0 0 0 0 0 3 1 0 0 0
100 100 100 100 100 100 100 100 100 100 100 100 100 97 100 44 87 94 88 100 89 2 12 10 71 10 71 5 34 51 100 53 0 0 0 1 0 0 0 0 0 0 0 0 4 0 0 0 0
100 100 100 100 100 100 100 100 100 100 100 100 100 94 16 76 19 6 12 54 96 8 75 7 100 20 84 100 99 100 19 0 0 2 5 5 0 0 0 0 0 0 0 1 0 0 0 0 0
100 100 100 100 100 100 100 100 100 100 93 99 41 63 89 100 100 90 100 100 80 40 100 100 100 98 100 100 96 5 5 0 0 5 5 5 0 0 0 0 0 0 0 0 0 0 0 0 0
88 12 99 100 100 100 100 100 100 100 95 96 98 31 23 64 100 100 88 100 100 100 100 100 100 56 28 100 28 10 66 78 4 0 5 5 1 0 0 0 2 0 0 0 0 0 0 0 0
67 7 96 100 100 100 100 95 100 97 97 59 100 31 88 71 100 100 100 100 81 100 100 100 100 100 98 95 58 37 8 86 5 0 5 5 4 0 0 2 22 5 5 0 0 0 0 0 0
20 69 100 100 100 100 100 100 100 99 99 89 100 100 99 100 98 94 71 69 62 100 100 100 100 100 73 22 87 22 5 3 3 3 5 5 6 7 5 2 98 5 0 3 0 0 0 0 0
100 100 100 100 100 100 100 100 100 100 100 100 99 100 100 100 99 98 50 42 34 77 100 100 100 100 81 94 83 2 0 0 1 0 5 8 6 21 19 5 20 5 5 5 0 0 0 0 0
100 100 100 100 100 100 100 100 100 100 100 100 100 100 100 98 96 83 92 100 100 100 24 24 5 5 68 7 5 2 1 0 5 27 19 33 19 92 14 16 89 7 72 16 0 11 0 0 2
50 78 98 100 100 100 100 100 100 100 100 100 100 100 100 93 92 96 10 92 100 20 66 86 79 93 75 6 5 4 2 3 0 35 28 9 5 98 70 64 67 16 94 14 6 0 0 1 4
81 74 72 84 100 100 100 100 100 100 100 100 100 100 100 100 28 18 6 69 22 5 84 94 10 8 5 8 1 4 4 0 0 0 1 0 54 97 90 31 78 80 55 6 30 74 18 1 4
100 19 5 10 100 100 100 87 100 100 100 100 100 60 18 9 22 80 74 10 0 5 5 68 6 5 0 2 5 5 0 3 2 0 0 5 51 1 6 90 8 87 34 18 70 100 35 98 100
48 83 15 99 100 100 100 28 100 100 100 73 11 5 5 5 96 79 8 3 1 5 8 80 6 5 5 5 5 0 0 0 3 0 0 4 48 95 100 71 5 25 0 6 74 71 3 90 74
5 6 7 100 100 100 100 94 100 100 96 4 2 5 7 39 99 5 5 30 4 5 58 5 7 5 5 2 0 0 0 0 4 0 3 1 5 2 1 5 0 0 4 14 16 42 100 94 17
72 97 100 100 100 100 79 0 14 32 14 0 3 24 40 97 16 2 5 3 3 5 18 1 3 4 5 0 2 0 0 0 0 0 0 5 6 14 3 0 0 2 12 7 16 98 73 51 24
1 0 3 64 79 99 9 0 5 5 0 0 5 5 6 79 5 12 2 0 5 5 5 0 0 0 2 0 1 0 0 0 0 0 1 10 3 39 0 0 0 7 16 10 98 100 100 48 96
0 0 1 5 100 100 100 5 0 0 0 1 5 9 100 3 0 0 0 0 5 4 5 70 3 0 1 0 5 3 4 0 0 10 2 45 100 29 0 0 0 83 100 99 100 76 60 79 78
0 0 12 46 100 100 74 0 0 24 2 13 5 97 85 0 3 0 0 1 5 5 2 0 1 4 0 5 5 12 5 5 4 1 3 35 0 0 0 0 32 58 100 74 72 61 99 100 49
0 0 0 3 0 0 52 0 0 64 88 90 100 99 2 5 0 0 0 2 4 0 0 0 0 0 5 8 50 5 10 22 3 0 0 0 0 20 0 82 99 94 61 9 18 14 9 4 33
0 0 0 0 0 0 0 0 0 6 62 100 100 5 0 0 0 0 0 0 0 0 5 31 0 0 5 14 1 24 96 5 0 0 0 0 0 0 6 46 10 7 33 2 3 6 14 12 50
0 0 0 0 0 0 0 0 0 0 5 45 2 0 0 0 0 0 0 0 0 1 4 1 0 5 5 4 67 82 5 0 0 0 0 0 0 13 24 5 2 0 15 15 5 77 5 32 32
0 0 0 0 0 0 0 0 0 0 0 0 0 0 0 0 0 0 0 0 0 19 1 0 1 33 3 93 82 5 0 0 0 0 0 0 4 5 0 0 0 3 0 5 7 76 97 52 24
0 0 0 0 0 0 0 0 0 0 0 0 0 0 0 0 0 0 0 2 4 5 0 0 5 5 90 88 6 0 0 0 0 0 0 0 1 0 0 0 0 5 51 98 75 58 57 59 95
2 0 0 0 0 0 0 0 0 0 0 0 0 0 0 0 0 0 0 0 0 0 0 6 96 100 99 34 0 0 0 0 0 0 0 0 3 4 0 0 76 83 20 79 62 100 75 89 65
5 3 0 0 0 0 0 0 0 0 0 0 0 0 0 0 0 0 0 0 0 0 5 43 100 100 6 0 0 0 0 0 0 0 0 0 1 1 5 36 100 90 39 90 68 100 72 100 97
80 9 2 0 0 0 0 0 0 0 0 0 0 0 0 0 0 0 0 0 0 5 72 100 100 100 54 0 0 0 0 0 0 0 0 0 4 5 35 0 4 91 100 60 99 100 100 100 100
100 4 4 0 0 0 0 0 0 0 0 0 0 0 0 0 0 0 0 0 6 79 100 100 7 4 0 0 0 0 0 0 3 3 0 5 5 74 19 1 8 15 100 79 100 100 100 100 100

GFSSGP_prec_cloud_045.txt.gz
Cloud_Cover
100 100 100 100 100 100 100 98 100 100 100 100 42 8 13 98 70 97 95 96 6 99 93 90 84 15 30 5 5 0 5 4 5 5 6 51 90 0 0 0 0 0 0 0 0 0 0 0 0
100 100 100 100 100 100 100 92 100 100 100 90 58 52 62 48 79 17 23 28 100 99 100 100 100 16 50 50 5 4 46 9 99 100 100 100 60 0 0 0 0 0 0 0 0 0 0 0 0
100 100 100 100 100 85 98 100 100 100 100 100 11 14 77 100 60 54 8 19 97 99 100 100 4 2 93 72 84 37 6 5 100 30 43 14 0 0 0 0 0 0 0 0 0 0 0 0 0
100 100 100 100 100 100 100 99 100 100 100 100 99 59 99 100 97 41 40 99 100 100 73 6 5 5 100 100 100 96 5 61 68 5 5 5 0 1 0 0 0 0 0 0 0 0 0 0 10
100 100 100 100 100 100 57 100 100 100 100 100 97 64 100 100 100 89 13 100 100 100 7 5 98 84 100 100 61 85 5 46 76 1 0 5 5 0 0 0 0 0 0 0 0 0 2 0 1
98 100 100 100 100 100 100 100 62 100 100 100 88 29 56 100 100 78 88 100 100 100 92 14 91 100 100 100 100 100 100 94 49 73 26 5 5 5 6 0 0 0 0 0 2 10 0 0 0
100 100 100 100 100 100 99 100 100 100 100 100 100 100 100 100 72 98 79 100 100 100 100 100 100 100 100 100 100 100 100 100 100 100 42 94 100 88 21 0 0 2 5 4 18 10 0 0 0
100 96 45 100 100 100 100 100 100 100 100 62 22 98 60 99 100 100 100 100 100 100 100 100 100 100 90 100 100 100 100 100 99 99 100 100 88 5 5 0 0 3 5 5 5 6 0 0 0
83 6 68 100 100 100 89 99 100 100 100 100 98 7 86 100 100 100 100 100 100 100 100 100 100 100 98 98 100 100 100 5 20 82 100 74 4 5 5 1 5 5 4 5 5 5 0 0 0
7 97 100 100 100 100 100 77 73 100 100 100 93 15 100 79 89 100 100 94 100 100 100 100 100 100 100 100 100 100 55 65 71 34 16 0 5 9 5 5 7 12 5 62 3 38 5 0 0
100 100 100 100 100 100 100 100 100 100 75 20 15 16 100 10 92 20 17 85 100 100 98 100 100 100 100 54 45 6 5 4 0 0 0 3 16 9 5 30 55 100 5 77 5 65 5 0 0
100 100 100 100 100 100 100 100 100 100 100 100 99 100 59 99 97 10 42 47 60 5 19 85 84 40 5 4 5 5 4 3 0 5 11 24 48 31 32 27 65 96 24 37 94 51 5 3 0
29 100 100 100 100 100 100 100 100 100 100 100 100 100 100 81 34 61 5 5 5 5 10 12 26 32 5 4 4 1 0 2 0 0 40 1 30 16 14 22 82 100 21 47 52 24 18 7 0
41 81 90 100 100 100 100 100 100 100 100 100 100 100 99 39 26 75 57 78 5 5 31 88 58 11 5 5 1 1 5 0 0 8 32 14 4 11 18 7 10 11 28 53 29 15 14 9 1
100 10 54 18 99 100 100 100 100 100 100 100 100 100 57 13 16 94 100 89 99 100 88 28 40 5 5 5 4 61 1 0 0 5 44 31 2 6 4 5 70 35 79 7 16 1 23 21 12
99 30 4 70 65 100 100 53 100 100 100 100 100 86 5 8 76 98 66 73 100 83 4 5 9 2 7 95 100 72 5 0 0 5 13 2 0 4 5 18 100 11 19 19 22 5 31 85 4
53 6 5 98 100 100 100 93 100 100 100 24 37 7 15 62 68 100 70 48 5 2 5 5 0 5 48 90 46 9 4 0 5 5 72 0 0 1 7 8 7 8 16 15 10 6 44 15 93
4 50 100 89 100 100 88 4 73 100 100 7 4 5 30 74 100 89 36 5 0 0 0 0 8 43 23 5 9 78 26 24 5 66 66 0 2 5 2 44 35 7 13 20 21 14 96 100 100
16 5 7 86 100 99 6 4 4 2 4 1 5 24 73 96 40 6 85 5 0 0 0 0 24 5 23 5 11 19 2 12 5 100 0 0 5 1 0 21 1 8 12 4 12 100 100 100 100
71 8 3 4 71 62 68 0 5 1 4 4 90 91 29 51 16 100 72 3 0 2 2 4 22 88 9 3 8 0 0 2 82 8 0 5 6 100 100 69 0 6 23 62 63 100 100 100 100
63 5 87 23 13 3 2 0 0 4 5 39 84 100 100 44 42 43 2 0 5 5 5 5 56 16 6 4 0 0 0 37 19 0 25 4 29 79 39 0 0 18 97 39 50 99 100 100 98
51 15 88 81 100 4 1 0 0 0 0 5 99 100 93 19 49 5 6 5 37 5 1 4 19 6 59 4 0 0 5 4 2 5 0 0 0 0 0 2 2 46 22 31 31 87 80 23 23
0 90 21 5 5 5 0 0 5 5 0 6 100 99 5 0 0 0 5 66 5 1 4 22 12 5 89 0 2 5 5 5 2 0 0 0 0 0 41 72 5 8 20 3 4 22 25 38 6
0 0 0 0 0 0 3 0 0 0 22 6 54 0 0 3 4 0 1 0 0 0 27 16 5 3 5 0 5 5 5 1 0 0 1 1 0 3 5 36 12 0 8 5 5 5 20 35 32
0 0 0 0 0 0 0 0 0 0 0 1 0 0 0 0 0 0 0 0 0 6 28 10 4 2 0 5 5 5 0 0 0 0 0 0 1 3 0 2 5 5 5 5 5 33 52 18 26
3 0 0 0 0 0 0 0 0 0 0 0 0 0 0 0 0 0 0 0 0 19 9 5 0 0 0 5 0 0 0 0 0 0 0 0 0 0 2 0 5 91 53 5 14 100 68 90 87
48 1 0 0 0 0 0 0 0 0 0 0 0 0 0 0 0 0 0 1 20 30 5 5 2 4 5 5 2 2 0 0 0 0 0 0 0 1 4 5 70 97 100 72 100 56 66 87 80
100 86 2 0 0 0 0 0 0 0 0 0 0 0 0 0 0 0 6 34 22 2 8 0 2 5 14 98 17 1 0 0 0 0 0 0 0 3 5 55 100 98 12 5 98 73 100 100 81
100 100 11 0 0 0 0 0 0 0 14 2 0 0 0 0 0 1 49 27 6 2 0 1 49 10 5 0 0 0 0 0 0 0 0 0 1 32 10 5 1 18 5 27 99 74 100 100 100
5 100 85 5 0 0 0 0 0 0 4 0 2 0 0 0 0 33 26 18 15 2 70 9 93 2 5 0 0 0 0 0 0 0 0 0 0 5 5 5 1 29 18 62 88 22 85 90 94

GFSSGP_prec_cloud_048.txt.gz
Cloud_Cover
100 100 100 100 84 100 100 81 100 100 46 99 99 100 100 99 8 47 5 16 5 89 100 35 100 95 37 100 100 1 0 0 1 5 5 3 5 5 5 5 0 0 0 0 2 0 0 0 0
100 100 100 100 100 100 100 100 99 98 100 100 100 100 100 53 6 5 8 18 82 78 100 40 58 5 100 100 16 4 5 5 45 5 100 100 33 48 50 6 5 5 5 5 0 0 0 0 0
99 100 100 100 100 100 100 100 100 100 100 99 100 99 42 12 8 30 18 55 100 100 97 15 6 10 12 5 13 52 49 95 92 100 40 100 100 34 5 5 52 80 7 3 0 0 0 0 0
100 33 70 95 100 20 72 100 96 92 77 100 100 100 100 100 20 15 65 100 95 68 83 5 5 4 5 5 6 82 100 100 99 6 5 5 1 5 5 66 100 5 4 0 0 0 0 0 0
100 81 80 100 100 30 89 99 100 100 100 100 100 100 82 67 64 40 57 24 100 85 90 20 5 11 5 23 41 96 100 100 82 5 3 6 99 10 7 9 5 5 5 0 0 0 3 12 0
100 95 100 100 100 70 90 74 100 100 100 100 100 100 100 92 42 59 65 38 92 100 100 100 40 59 42 100 100 100 100 77 5 5 72 100 100 45 5 5 3 4 0 0 0 0 0 0 0
100 100 100 100 100 95 98 95 100 100 100 100 100 100 99 98 87 17 87 90 100 100 100 100 100 100 100 100 100 100 62 5 17 100 100 90 5 5 5 5 4 0 0 0 0 0 0 0 0
100 100 100 100 100 100 100 100 100 100 100 100 100 100 100 90 100 92 100 100 100 100 100 100 100 100 100 100 100 100 6 54 100 100 13 5 5 5 1 5 5 0 5 4 0 2 0 5 0
100 68 100 100 100 100 96 46 60 100 100 100 100 100 100 100 100 100 100 100 100 100 100 100 100 100 100 100 100 40 83 100 97 72 18 46 5 4 0 3 5 5 5 5 2 3 5 5 4
85 86 100 100 100 100 94 31 5 78 100 100 100 100 100 100 100 100 59 84 100 100 100 100 100 100 100 100 73 27 12 6 22 28 5 5 1 2 0 3 5 5 5 5 5 0 5 5 4
100 100 100 100 100 100 98 79 64 5 75 89 98 100 100 99 34 90 70 100 94 8 98 100 79 95 100 98 73 73 8 11 18 5 0 2 16 2 1 3 5 5 5 4 60 4 3 5 0
100 100 100 100 100 100 100 100 18 22 46 18 100 100 93 100 100 100 100 82 15 34 100 100 75 45 92 84 100 84 73 21 5 3 8 18 44 27 19 20 14 17 9 15 11 8 14 5 5
81 100 100 100 100 100 100 97 100 12 97 100 100 100 100 100 100 92 95 21 22 16 92 70 71 82 100 100 100 97 5 5 5 5 23 0 22 23 24 12 8 9 8 9 88 40 39 6 2
40 81 100 100 100 100 99 100 100 100 100 100 100 99 86 98 48 5 10 57 5 5 5 5 9 16 76 100 98 4 5 5 5 5 8 0 3 14 35 70 70 75 83 94 100 34 48 3 0
100 25 100 100 100 100 100 100 88 100 100 100 100 89 38 5 5 5 5 5 3 3 5 5 25 5 5 10 5 5 62 5 6 7 3 14 12 22 5 31 40 73 100 100 100 34 30 22 0
98 93 79 63 100 100 100 7 100 100 100 100 100 100 94 7 21 56 30 22 50 50 5 5 11 5 3 0 0 5 5 9 96 26 50 48 27 88 5 1 36 3 100 100 22 28 36 12 7
77 21 20 100 100 100 100 70 100 100 100 85 11 5 20 100 100 100 100 100 77 5 37 44 5 1 0 3 3 5 68 32 74 40 65 67 68 14 3 0 4 8 35 26 31 23 5 14 9
38 100 100 100 100 100 100 30 100 100 100 7 5 5 7 63 100 100 67 61 20 5 5 5 5 0 0 25 11 36 34 45 31 30 26 34 64 11 1 0 52 9 24 26 23 11 17 12 98
100 100 94 12 38 100 30 2 13 70 53 7 5 87 100 100 100 100 100 90 38 10 5 0 0 0 7 10 23 97 32 100 68 22 4 36 66 25 5 6 76 82 6 2 9 74 100 100 100
43 32 92 93 34 8 20 0 0 0 5 5 5 24 100 100 100 94 24 6 3 5 3 0 0 0 1 4 24 12 25 31 7 17 35 76 23 6 6 97 100 39 18 14 98 100 100 100 100
5 6 90 100 100 5 0 0 0 0 0 0 52 100 100 78 56 15 4 5 4 5 2 4 0 0 10 5 4 10 5 0 0 16 75 8 5 0 10 13 92 10 13 100 98 96 100 100 100
0 2 66 100 100 97 52 0 0 40 0 0 29 100 98 10 42 6 5 5 97 34 44 0 2 22 2 2 1 4 0 0 5 5 4 4 0 32 15 1 0 5 51 93 42 67 100 100 76
0 0 0 3 83 91 11 2 1 30 2 59 97 6 1 3 0 1 6 18 5 5 4 5 19 24 2 0 5 5 0 5 4 0 0 4 0 0 0 0 10 17 31 20 20 52 54 42 16
2 0 0 0 0 0 12 4 56 100 93 100 4 5 5 0 0 2 17 5 0 0 12 37 26 28 0 5 4 2 0 0 0 0 2 2 6 2 0 0 0 6 19 17 15 12 27 34 5
5 3 0 0 0 0 1 0 87 100 82 100 76 73 93 49 3 8 0 0 0 5 55 46 11 24 3 0 0 0 0 0 0 0 8 13 14 0 2 3 21 16 6 99 36 10 11 77 25
5 19 0 0 0 0 0 0 0 100 100 100 100 100 5 2 2 0 0 0 0 37 52 30 7 7 0 0 0 0 4 45 2 0 5 1 0 0 0 0 6 5 54 100 96 67 9 13 22
5 79 78 1 0 0 0 0 0 0 0 44 97 71 0 0 0 0 0 0 33 53 39 19 0 2 0 0 2 17 57 3 0 0 0 0 0 0 0 5 3 5 100 69 48 100 62 88 66
2 48 100 30 0 0 0 0 0 0 0 0 0 0 0 0 0 0 0 54 72 39 18 8 0 0 0 2 5 17 0 0 0 0 0 0 0 0 5 14 5 2 100 82 25 100 32 46 89
41 5 37 61 3 0 0 0 0 0 0 0 0 0 0 0 0 26 99 100 72 36 7 0 0 0 1 0 0 0 0 0 0 0 0 0 0 0 5 100 100 23 1 13 53 32 60 42 99
7 5 11 9 5 0 0 0 0 0 0 0 0 0 0 0 8 100 100 100 96 48 7 0 0 0 3 0 0 0 0 0 0 0 0 0 0 4 5 97 91 6 0 5 96 5 7 55 100